This demonstration page uses our WeatherBlox Daily Observations layout. Learn more.

Left ArrowRight Arrow

38.88101, -77.10428

Hourly Observations for July 20, 2016

Temp ( °F °C ) Dew Point ( °F °C ) Humidity (%) Winds ( mph kmh ) Pressure ( in mb ) Visibility ( mi km ) Precip ( " mm )
12:08 am 00:08 Cloudy with Heavy Thunderstorms 70 21 64 18 83 83 E 3 6 30.18 1022 6 9.65604 0 0
12:21 am 00:21 Cloudy with Light Thunderstorms 71 21.7 67 19.4 87 87 SSE 9 15 30.18 1022 7 11.26538 0.07 1.778
12:28 am 00:28 Cloudy with Thunderstorms 70 21 66 19 88 88 SE 8 13 30.15 1021 7 11.26538 0 0
12:34 am 00:34 Mostly Cloudy with Thunderstorms 70 21 66 19 88 88 S 8 13 30.18 1022 10 16.0934 0 0
12:52 am 00:52 Mostly Cloudy with Thunderstorms 72 22 66 19 83 83 ENE 6 9 30.15 1021 10 16.0934 0 0
1:22 am 01:22 Partly Cloudy 73 23 64 18 74 74 Calm 30.15 1021 10 16.0934 0 0
1:52 am 01:52 Partly Cloudy 71 21.7 68 20 90 90 NNW 3 6 30.15 1021 10 16.0934 0 0
2:52 am 02:52 Partly Cloudy 71 21.7 67 19.4 87 87 N 3 6 30.15 1021 10 16.0934 0 0
3:52 am 03:52 Partly Cloudy 71 21.7 67 19.4 87 87 Calm 30.15 1021 10 16.0934 0 0
4:52 am 04:52 Mostly Clear 70 21.1 68 20 93 93 NNW 3 6 30.15 1021 10 16.0934 0 0
5:52 am 05:52 Partly Cloudy 70 21.1 67 19.4 90 90 N 6 9 30.16 1021 10 16.0934 0 0
6:52 am 06:52 Partly Cloudy 71 21.7 67 19.4 87 87 NNW 9 15 30.17 1022 10 16.0934 0 0
7:52 am 07:52 Mostly Sunny 73 22.8 67 19.4 81 81 N 9 15 30.19 1022 10 16.0934 0 0
8:52 am 08:52 Mostly Sunny 76 24.4 67 19.4 74 74 N 8 13 30.21 1023 10 16.0934 0 0
9:52 am 09:52 Mostly Sunny 79 26.1 68 20 69 69 NNE 7 11 30.21 1023 10 16.0934 0 0
10:52 am 10:52 Mostly Sunny 82 27.8 70 21.1 67 67 ENE 6 9 30.22 1023 10 16.0934 0 0
11:52 am 11:52 Mostly Cloudy 83 28.3 68 20 61 61 NE 6 9 30.21 1023 10 16.0934 0 0
12:52 pm 12:52 Mostly Cloudy 84 28.9 65 18.3 53 53 N 7 11 30.2 1023 10 16.0934 0 0
1:52 pm 13:52 Mostly Cloudy 86 30 63 17.2 46 46 NE 8 13 30.18 1022 10 16.0934 0 0
2:52 pm 14:52 Mostly Cloudy 87 30.6 62 16.7 43 43 N 9 15 30.17 1022 10 16.0934 0 0
3:52 pm 15:52 Mostly Cloudy 88 31.1 62 16.7 42 42 NNW 8 13 30.16 1021 10 16.0934 0 0
4:52 pm 16:52 Mostly Cloudy 85 29.4 61 16.1 45 45 NNE 9 15 30.14 1021 10 16.0934 0 0
5:52 pm 17:52 Mostly Cloudy 86 30 60 15.6 42 42 ENE 6 9 30.14 1021 10 16.0934 0 0
6:52 pm 18:52 Mostly Cloudy 84 29 59 15 43 43 NW 9 15 30.12 1020 10 16.0934 0 0
7:52 pm 19:52 Mostly Cloudy 83 28.3 59 15 44 44 NNW 10 17 30.15 1021 10 16.0934 0 0
8:52 pm 20:52 Mostly Cloudy 80 26.7 64 17.8 58 58 SE 5 7 30.17 1022 10 16.0934 0 0
9:52 pm 21:52 Partly Cloudy 80 26.7 64 17.8 58 58 E 3 6 30.18 1022 10 16.0934 0 0
10:52 pm 22:52 Mostly Clear 79 26.1 64 17.8 60 60 Calm 30.18 1022 10 16.0934 0 0
11:52 pm 23:52 Clear 78 25.6 65 18.3 64 64 Calm 30.18 1022 10 16.0934 0 0

Powered by AerisWeather